When you browse on this site, cookies collect data to enhance your experience and personalize the content and advertising you see.
Visit our Privacy Policy to learn more. By continuing to use the site, you agree to this use of cookies and data.
  • In Czech Republic
  • List of Countries
  • For 7 days
  • Water Temperature
  • Weather Map
  • Weather Widgets
  • user-avatar
    Login

    Hourly Weather Chiquimula

    Today, 16 September, Monday

    Time Temperature Precipitation Wind Pressure Humidity
    00:00 +23°C° 0.5 mm 1 mps 708 mmHg 98%
    01:00 +23°C° 0.5 mm 1 mps 707 mmHg 98%
    02:00 +23°C° 0.5 mm 1 mps 707 mmHg 98%
    03:00 +21°C° 0.5 mm 0 mps 707 mmHg 98%
    04:00 +20°C° 0.1 mm 0 mps 707 mmHg 98%
    05:00 +20°C° 0.1 mm 0 mps 708 mmHg 98%
    06:00 +20°C° 0.1 mm 0 mps 708 mmHg 98%
    07:00 +22°C° 0 mm 0 mps 708 mmHg 94%
    08:00 +25°C° 0 mm 1 mps 709 mmHg 90%
    09:00 +26°C° 0 mm 1 mps 709 mmHg 86%
    10:00 +28°C° 0 mm 1 mps 709 mmHg 80%
    11:00 +29°C° 0 mm 1 mps 708 mmHg 74%
    12:00 +30°C° 0 mm 1 mps 708 mmHg 69%
    13:00 +30°C° 0.6 mm 1 mps 707 mmHg 70%
    14:00 +30°C° 0.6 mm 1 mps 707 mmHg 71%
    15:00 +30°C° 0.6 mm 1 mps 706 mmHg 71%
    16:00 +29°C° 1.6 mm 1 mps 706 mmHg 79%
    17:00 +27°C° 1.6 mm 1 mps 706 mmHg 86%
    18:00 +25°C° 1.6 mm 1 mps 706 mmHg 93%
    19:00 +25°C° 1.9 mm 1 mps 707 mmHg 94%
    20:00 +24°C° 1.9 mm 1 mps 707 mmHg 95%
    21:00 +24°C° 1.9 mm 1 mps 708 mmHg 96%
    22:00 +23°C° 1.1 mm 1 mps 708 mmHg 96%
    23:00 +21°C° 1.1 mm 0 mps 708 mmHg 96%

    Tomorrow, 17 September, Tuesday

    Time Temperature Precipitation Wind Pressure Humidity
    00:00 +21°C° 1.1 mm 0 mps 708 mmHg 97%
    01:00 +21°C° 0.3 mm 0 mps 707 mmHg 97%
    02:00 +20°C° 0.3 mm 0 mps 707 mmHg 97%
    03:00 +20°C° 0.3 mm 0 mps 706 mmHg 97%
    04:00 +20°C° 0 mm 0 mps 707 mmHg 97%
    05:00 +20°C° 0 mm 0 mps 707 mmHg 97%
    06:00 +20°C° 0 mm 0 mps 707 mmHg 97%
    07:00 +22°C° 0 mm 0 mps 708 mmHg 92%
    08:00 +24°C° 0 mm 0 mps 708 mmHg 87%
    09:00 +26°C° 0 mm 0 mps 709 mmHg 83%
    10:00 +29°C° 0.3 mm 1 mps 709 mmHg 78%
    11:00 +30°C° 0.3 mm 1 mps 709 mmHg 73%
    12:00 +31°C° 0.3 mm 1 mps 708 mmHg 69%
    13:00 +30°C° 1.4 mm 1 mps 708 mmHg 72%
    14:00 +30°C° 1.4 mm 1 mps 707 mmHg 75%
    15:00 +29°C° 1.4 mm 1 mps 707 mmHg 78%
    16:00 +28°C° 1 mm 1 mps 707 mmHg 82%
    17:00 +24°C° 1 mm 0 mps 707 mmHg 86%
    18:00 +23°C° 1 mm 0 mps 707 mmHg 90%
    19:00 +22°C° 0.7 mm 0 mps 707 mmHg 92%
    20:00 +24°C° 0.7 mm 1 mps 708 mmHg 94%
    21:00 +23°C° 0.7 mm 1 mps 708 mmHg 95%
    22:00 +21°C° 0.2 mm 0 mps 708 mmHg 95%
    23:00 +21°C° 0.2 mm 0 mps 708 mmHg 95%

    Day after tomorrow, 18 September, Wednesday

    Time Temperature Precipitation Wind Pressure Humidity
    00:00 +20°C° 0.2 mm 0 mps 708 mmHg 95%
    01:00 +20°C° 0 mm 0 mps 708 mmHg 95%
    02:00 +20°C° 0 mm 0 mps 707 mmHg 95%
    03:00 +20°C° 0 mm 0 mps 707 mmHg 96%
    04:00 +20°C° 0 mm 0 mps 707 mmHg 96%
    05:00 +19°C° 0 mm 0 mps 707 mmHg 96%
    06:00 +19°C° 0 mm 0 mps 707 mmHg 96%
    07:00 +21°C° 0 mm 0 mps 708 mmHg 90%
    08:00 +26°C° 0 mm 1 mps 708 mmHg 84%
    09:00 +28°C° 0 mm 1 mps 709 mmHg 78%
    10:00 +29°C° 0 mm 1 mps 708 mmHg 73%
    11:00 +30°C° 0 mm 1 mps 708 mmHg 68%
    12:00 +32°C° 0 mm 1 mps 708 mmHg 63%
    13:00 +31°C° 0.7 mm 1 mps 707 mmHg 67%
    14:00 +31°C° 0.7 mm 2 mps 707 mmHg 70%
    15:00 +30°C° 0.7 mm 2 mps 706 mmHg 74%
    16:00 +29°C° 1 mm 2 mps 706 mmHg 81%
    17:00 +27°C° 1 mm 2 mps 706 mmHg 88%
    18:00 +25°C° 1 mm 1 mps 706 mmHg 94%
    19:00 +25°C° 0.3 mm 1 mps 707 mmHg 95%
    20:00 +24°C° 0.3 mm 1 mps 707 mmHg 96%
    21:00 +24°C° 0.3 mm 1 mps 708 mmHg 97%
    22:00 +23°C° 0.4 mm 1 mps 708 mmHg 97%
    23:00 +23°C° 0.4 mm 1 mps 707 mmHg 97%

    19 September, Thursday

    Time Temperature Precipitation Wind Pressure Humidity
    00:00 +23°C° 0.4 mm 1 mps 707 mmHg 97%
    01:00 +23°C° 0 mm 1 mps 707 mmHg 97%
    02:00 +22°C° 0 mm 1 mps 706 mmHg 97%
    03:00 +22°C° 0 mm 1 mps 706 mmHg 97%
    04:00 +22°C° 0 mm 1 mps 706 mmHg 97%
    05:00 +22°C° 0 mm 1 mps 707 mmHg 96%
    06:00 +22°C° 0 mm 1 mps 707 mmHg 96%
    07:00 +23°C° 0 mm 1 mps 707 mmHg 91%
    08:00 +25°C° 0 mm 1 mps 708 mmHg 85%
    09:00 +27°C° 0 mm 1 mps 708 mmHg 80%
    10:00 +28°C° 0 mm 1 mps 708 mmHg 72%
    11:00 +30°C° 0 mm 1 mps 707 mmHg 64%
    12:00 +31°C° 0 mm 2 mps 707 mmHg 56%
    13:00 +31°C° 0 mm 2 mps 707 mmHg 56%
    14:00 +31°C° 0 mm 2 mps 706 mmHg 55%
    15:00 +31°C° 0 mm 2 mps 705 mmHg 55%
    16:00 +29°C° 0 mm 1 mps 705 mmHg 63%
    17:00 +27°C° 0 mm 1 mps 705 mmHg 71%
    18:00 +25°C° 0 mm 1 mps 705 mmHg 79%
    19:00 +24°C° 0 mm 1 mps 706 mmHg 81%
    20:00 +24°C° 0 mm 1 mps 706 mmHg 83%
    21:00 +21°C° 0 mm 0 mps 706 mmHg 86%
    22:00 +20°C° 0 mm 0 mps 706 mmHg 87%
    23:00 +20°C° 0 mm 0 mps 706 mmHg 89%

    20 September, Friday

    Time Temperature Precipitation Wind Pressure Humidity
    00:00 +20°C° 0 mm 0 mps 706 mmHg 91%
    01:00 +20°C° 0 mm 0 mps 706 mmHg 92%
    02:00 +19°C° 0 mm 0 mps 706 mmHg 93%
    03:00 +19°C° 0 mm 0 mps 705 mmHg 94%
    04:00 +19°C° 0 mm 0 mps 706 mmHg 94%
    05:00 +19°C° 0 mm 0 mps 706 mmHg 94%
    06:00 +19°C° 0 mm 0 mps 706 mmHg 94%
    07:00 +23°C° 0 mm 1 mps 707 mmHg 87%
    08:00 +26°C° 0 mm 1 mps 707 mmHg 79%
    09:00 +28°C° 0 mm 1 mps 708 mmHg 71%
    10:00 +29°C° 0.1 mm 1 mps 708 mmHg 68%
    11:00 +31°C° 0.1 mm 1 mps 707 mmHg 65%
    12:00 +32°C° 0.1 mm 1 mps 707 mmHg 62%
    13:00 +31°C° 0.6 mm 1 mps 707 mmHg 64%
    14:00 +31°C° 0.6 mm 1 mps 706 mmHg 67%
    15:00 +30°C° 0.6 mm 1 mps 705 mmHg 69%
    16:00 +29°C° 0.9 mm 1 mps 706 mmHg 76%
    17:00 +27°C° 0.9 mm 1 mps 706 mmHg 83%
    18:00 +25°C° 0.9 mm 1 mps 706 mmHg 90%
    19:00 +24°C° 0.6 mm 1 mps 706 mmHg 92%
    20:00 +24°C° 0.6 mm 1 mps 707 mmHg 93%
    21:00 +21°C° 0.6 mm 0 mps 707 mmHg 94%
    22:00 +21°C° 0.6 mm 0 mps 707 mmHg 95%
    23:00 +21°C° 0.6 mm 0 mps 707 mmHg 95%

    21 September, Saturday

    Time Temperature Precipitation Wind Pressure Humidity
    00:00 +20°C° 0.6 mm 0 mps 707 mmHg 96%
    01:00 +20°C° 0.4 mm 0 mps 707 mmHg 96%
    02:00 +20°C° 0.4 mm 0 mps 707 mmHg 96%
    03:00 +20°C° 0.4 mm 0 mps 706 mmHg 97%
    04:00 +20°C° 0 mm 0 mps 707 mmHg 97%
    05:00 +20°C° 0 mm 0 mps 707 mmHg 97%
    06:00 +19°C° 0 mm 0 mps 707 mmHg 97%
    07:00 +21°C° 0 mm 0 mps 707 mmHg 91%
    08:00 +26°C° 0 mm 1 mps 708 mmHg 85%
    09:00 +28°C° 0 mm 1 mps 708 mmHg 80%
    10:00 +29°C° 0.1 mm 1 mps 708 mmHg 74%
    11:00 +30°C° 0.1 mm 1 mps 708 mmHg 68%
    12:00 +31°C° 0.1 mm 1 mps 707 mmHg 62%
    13:00 +31°C° 0.1 mm 1 mps 707 mmHg 62%
    14:00 +31°C° 0.1 mm 1 mps 706 mmHg 62%
    15:00 +31°C° 0.1 mm 1 mps 706 mmHg 63%
    16:00 +29°C° 0.1 mm 1 mps 706 mmHg 69%
    17:00 +27°C° 0.1 mm 1 mps 706 mmHg 76%
    18:00 +26°C° 0.1 mm 1 mps 706 mmHg 82%
    19:00 +25°C° 0.1 mm 1 mps 707 mmHg 83%
    20:00 +24°C° 0.1 mm 1 mps 707 mmHg 85%
    21:00 +21°C° 0.1 mm 0 mps 708 mmHg 86%
    22:00 +21°C° 0 mm 0 mps 708 mmHg 88%
    23:00 +21°C° 0 mm 0 mps 708 mmHg 89%
    Show more